Theta_e
331 336 340 342 344 338 338 337 338 340 340 339 338 339 337 337 339 343 335 333 336 339 345 346 332 337 339 340 338 336 336 336 336 336 337 338 337 336 336 336 337 338 339 339 339 339 340 341 341
341 340 342 344 339 339 337 334 336 338 338 337 335 335 339 342 337 336 335 337 337 339 341 343 331 336 338 339 336 335 336 336 337 340 343 343 340 338 336 335 335 338 340 341 341 340 340 341 342
341 341 346 342 340 341 340 335 332 333 333 335 338 339 341 340 337 336 337 337 339 339 341 344 335 335 338 341 340 339 338 338 339 340 342 343 340 337 335 335 337 339 339 340 340 341 341 341 341
342 344 343 341 342 339 339 337 335 335 334 335 337 341 339 338 339 337 337 338 340 344 347 345 343 343 338 343 342 340 339 341 340 339 342 341 338 336 335 336 339 340 339 339 339 340 340 341 340
342 343 340 341 341 339 339 338 337 337 338 339 340 344 343 336 336 338 340 341 343 343 344 347 342 342 342 339 340 340 338 338 342 338 337 337 337 336 338 339 339 339 339 339 339 337 334 335 335
338 340 347 342 341 340 339 338 337 339 340 341 343 345 346 342 341 342 342 342 342 341 342 342 343 341 343 341 341 341 339 338 338 338 337 334 333 333 334 336 332 334 335 337 337 335 333 331 332
335 338 341 341 343 341 340 339 339 340 341 342 341 347 345 343 343 343 342 341 340 339 338 338 337 343 343 342 339 342 342 339 338 334 332 334 331 329 325 326 323 322 327 327 331 329 327 327 327
333 340 341 342 344 342 341 340 340 342 342 339 342 350 347 344 343 341 339 338 334 330 328 327 329 330 334 342 335 337 335 333 332 329 328 327 331 325 324 323 320 321 322 323 327 328 325 319 322
333 340 342 343 344 342 341 343 342 341 342 342 342 342 342 343 342 340 338 332 327 325 323 324 325 328 330 332 336 337 334 331 330 329 327 327 325 323 319 319 317 320 318 321 322 326 325 325 321
332 340 339 340 341 340 341 343 342 344 345 345 343 343 342 341 339 335 330 326 324 323 322 323 326 329 329 329 330 330 329 328 327 326 325 323 321 320 319 319 319 320 319 319 319 321 322 326 326
339 341 340 341 341 342 343 342 343 344 346 345 345 344 341 338 331 328 326 325 324 323 322 324 327 330 330 329 327 327 326 326 325 325 322 320 320 320 320 320 320 321 320 321 320 320 320 322 324
339 341 341 342 341 342 343 342 343 345 344 343 344 342 337 332 328 328 326 325 323 323 322 324 327 329 329 328 326 326 325 324 323 322 321 321 320 321 321 321 321 321 321 321 321 321 321 320 320
342 343 342 341 342 341 342 345 346 345 343 344 343 340 335 330 329 328 328 327 325 324 322 323 325 327 327 326 326 325 324 323 322 321 321 322 322 323 322 322 321 320 319 319 320 320 321 321 320
342 342 342 342 341 341 344 346 345 344 344 345 343 340 334 330 330 329 329 328 326 325 323 321 323 324 325 325 325 323 323 321 321 321 322 322 322 322 321 320 320 320 320 320 319 319 320 320 320
342 344 343 341 340 341 343 345 347 344 344 345 344 341 336 332 331 331 331 330 327 326 325 322 321 323 323 323 322 322 321 321 321 321 322 322 321 321 321 320 320 320 320 320 319 320 320 320 320
345 346 353 343 340 341 343 352 348 345 345 345 344 343 339 334 332 332 331 330 328 326 325 322 320 321 323 322 322 321 321 321 320 321 321 321 320 319 320 319 320 320 320 320 319 319 320 319 320
346 344 338 345 342 344 343 347 347 343 345 345 344 344 342 339 335 333 331 330 329 327 325 322 321 321 323 323 322 321 321 320 320 321 320 320 319 319 320 319 320 320 319 319 318 318 319 320 319
337 333 336 340 344 343 345 345 346 344 343 344 343 344 341 341 339 336 332 331 329 328 326 323 321 322 321 321 320 320 321 320 321 321 320 320 319 319 319 319 319 319 319 318 317 318 318 319 319
332 334 336 338 344 343 343 344 345 345 343 343 345 343 341 340 339 337 334 332 331 330 327 324 322 322 322 320 320 320 320 320 321 320 320 320 319 319 319 318 318 318 318 319 316 316 316 318 317
333 336 337 340 342 343 345 344 345 345 343 342 343 341 341 339 340 339 336 334 332 331 328 325 322 322 321 321 321 322 322 321 320 320 320 321 319 318 318 318 318 317 318 317 316 316 316 315 316
335 334 335 335 339 342 341 345 346 344 342 343 342 342 340 339 340 341 337 336 333 332 329 326 323 323 322 323 321 322 322 322 320 320 320 320 319 318 318 317 318 317 317 315 315 315 315 314 315
342 334 335 337 340 341 337 335 349 347 346 344 343 341 340 339 338 340 336 337 334 332 329 326 324 323 321 322 323 324 322 322 322 320 321 320 320 318 317 317 317 317 316 315 314 314 315 313 313
335 335 337 338 340 341 345 334 347 346 346 345 343 341 339 339 338 338 334 335 334 332 329 325 324 323 322 323 323 323 322 321 321 320 321 319 319 318 317 317 317 316 315 315 315 314 313 314 314
336 339 342 342 345 347 342 334 341 344 339 338 341 339 338 338 339 337 335 334 334 331 328 325 325 323 323 322 322 323 323 322 322 321 321 319 318 318 318 317 316 316 315 316 314 315 314 315 314
336 341 347 345 351 342 339 334 337 338 336 336 337 339 338 338 338 338 337 336 334 332 329 325 325 324 322 321 322 322 322 322 322 321 320 320 318 318 318 317 317 316 315 315 314 315 314 313 314
338 338 341 342 338 337 345 337 336 336 336 337 337 337 339 338 338 339 337 335 333 333 330 326 324 324 322 321 322 322 322 321 322 321 321 321 319 318 318 317 316 316 316 315 316 315 314 314 314
338 339 337 339 339 339 341 336 338 337 338 338 339 338 339 338 338 339 338 336 332 333 331 326 324 323 322 321 322 322 322 321 321 321 321 321 320 318 318 317 316 316 316 316 317 315 314 314 314
335 335 335 338 338 338 335 338 338 335 336 339 339 339 338 340 339 339 337 336 333 332 331 327 324 323 322 322 321 321 321 321 320 321 321 320 320 319 318 318 316 316 316 316 317 316 315 314 313
336 338 341 340 338 338 342 335 335 336 337 337 338 339 339 340 339 339 338 335 334 332 330 328 324 323 322 322 321 321 321 321 320 320 320 320 320 319 319 318 317 316 316 316 316 316 315 315 314
333 334 336 337 336 334 335 336 336 336 336 338 337 336 337 338 337 336 337 334 333 332 330 327 324 322 321 321 321 321 321 321 321 321 320 319 320 320 319 318 317 317 316 316 316 316 315 316 316
Wind_Speed
7 8 11 12 6 10 16 17 15 17 16 14 19 19 21 20 15 7 7 8 8 9 7 5 4 3 2 2 3 3 4 4 5 6 8 8 8 8 9 9 10 11 12 12 12 11 11 10 9
9 9 11 8 3 13 12 13 15 15 16 15 17 19 19 18 18 14 15 8 6 6 5 5 3 2 2 2 2 3 4 4 5 6 8 8 9 10 10 11 11 11 12 12 13 14 14 13 11
11 13 10 7 11 14 13 14 14 12 11 12 13 15 9 12 14 10 9 6 5 4 7 4 6 3 1 2 3 3 4 4 4 5 7 8 9 9 10 11 12 12 13 13 14 14 15 15 15
9 11 9 13 16 14 13 10 12 16 15 16 17 14 11 9 8 11 7 5 7 9 15 12 14 5 2 2 4 4 4 4 5 6 7 8 8 9 9 10 11 13 13 14 14 14 16 16 17
17 9 4 15 15 13 12 10 12 13 15 16 18 17 15 13 12 9 7 6 7 9 10 11 15 13 2 2 4 5 5 4 5 6 6 6 6 7 9 10 11 12 13 14 14 14 15 16 18
11 6 7 15 15 10 10 9 13 15 13 16 17 15 13 12 12 9 7 7 8 9 9 10 8 12 8 4 4 5 4 2 4 7 8 7 7 8 9 10 13 12 13 13 12 12 14 16 17
17 4 15 9 15 15 11 11 13 14 13 13 11 16 13 15 10 9 9 9 11 13 13 14 13 8 6 7 9 7 5 4 6 7 7 8 11 12 13 10 15 14 15 14 14 14 14 13 13
12 12 12 8 12 17 10 10 10 10 12 7 10 4 14 12 5 8 11 12 12 13 14 14 13 11 5 12 15 12 14 13 13 13 10 9 1 13 12 13 18 16 16 15 14 15 16 16 14
13 5 11 15 13 16 9 14 14 13 16 15 17 18 16 8 8 8 10 12 13 14 14 14 14 12 9 7 8 7 12 12 10 10 13 10 10 13 15 13 18 13 17 14 15 13 14 13 13
11 11 17 13 13 10 9 14 9 14 14 15 14 14 11 9 10 10 12 11 13 15 15 16 13 12 10 9 7 7 8 8 11 14 14 13 12 13 13 11 9 12 16 13 16 13 18 13 13
14 15 12 13 10 13 9 8 14 8 10 10 13 11 12 10 10 11 11 12 14 16 17 16 14 12 11 10 9 8 8 9 10 14 15 13 13 14 13 13 14 14 14 15 15 13 14 13 13
13 11 10 10 5 6 9 8 11 8 10 13 9 12 11 10 10 11 13 14 16 17 16 15 15 13 12 9 9 8 9 10 11 13 15 15 14 14 14 14 14 15 16 15 15 14 15 14 12
12 10 9 8 11 9 7 12 13 12 10 11 11 9 10 9 9 9 11 14 16 17 17 16 14 12 11 10 9 9 9 10 10 11 14 15 14 14 14 15 16 17 17 17 16 16 15 15 13
10 11 11 12 10 10 11 15 10 10 10 10 11 9 9 9 8 9 10 13 13 15 16 13 12 11 10 9 8 8 8 9 9 10 13 13 14 16 15 16 17 18 18 18 17 17 16 15 14
12 9 7 10 9 9 13 11 10 11 10 11 11 8 8 8 7 9 9 11 11 13 13 13 10 10 9 8 7 7 8 9 9 10 11 14 15 16 16 15 16 17 16 16 17 17 16 16 15
11 15 9 10 9 7 10 11 12 10 10 10 9 9 8 6 6 7 6 7 9 10 11 11 9 8 8 8 9 9 9 9 10 10 12 15 15 16 15 14 15 15 15 16 18 18 18 16 15
19 6 7 11 8 2 10 13 16 13 12 11 11 11 9 8 6 6 3 5 6 8 9 10 9 8 8 8 8 9 9 9 9 10 12 14 15 16 15 14 15 16 15 17 18 18 19 18 16
5 12 8 7 10 5 6 9 15 15 12 10 10 10 9 9 9 8 5 3 4 5 8 9 9 9 8 8 6 8 6 7 7 9 11 13 15 16 16 14 15 16 15 15 18 18 18 18 18
7 7 5 6 5 6 6 3 13 15 13 9 9 9 10 8 11 10 7 4 4 2 6 8 9 8 7 9 10 9 9 8 8 9 10 13 15 16 15 15 15 16 15 14 17 18 18 16 16
4 5 12 3 3 6 4 9 12 17 15 14 13 10 10 8 10 10 9 7 3 2 4 6 7 8 7 7 8 6 6 6 7 8 8 12 14 15 15 16 16 15 16 17 16 16 16 16 16
6 10 9 8 2 10 10 14 12 13 13 14 13 13 10 9 11 13 10 8 6 3 1 3 4 5 6 6 6 7 4 5 9 9 10 11 12 13 14 15 15 15 15 16 16 15 15 15 15
18 7 5 3 8 0 3 6 13 12 12 12 12 12 12 10 8 10 12 11 8 4 3 2 2 3 4 5 4 4 8 7 7 9 10 11 10 12 14 14 15 15 16 14 12 12 11 10 11
8 6 7 7 12 8 11 7 10 11 10 13 13 13 11 11 11 11 13 12 9 8 6 3 1 2 3 2 4 7 6 8 9 9 9 9 8 9 13 13 13 14 16 13 10 12 12 7 7
2 7 8 12 17 3 4 5 7 6 4 5 14 14 10 11 10 9 9 10 10 9 6 4 3 1 2 2 2 4 6 7 8 9 9 10 10 10 12 12 12 13 15 14 12 10 10 11 8
8 15 4 3 4 5 5 2 8 9 3 6 5 15 15 13 9 10 11 12 10 9 6 5 3 2 1 1 2 4 5 5 7 7 10 10 11 10 11 11 11 12 13 14 13 10 12 13 13
7 8 8 13 11 10 25 1 6 8 5 4 5 7 14 15 12 10 13 9 12 10 8 5 5 3 3 1 1 3 5 7 8 8 9 10 11 11 10 10 10 10 12 13 13 12 12 12 12
2 7 9 9 14 5 2 8 14 5 3 1 6 8 10 10 8 11 12 11 9 11 9 6 4 3 4 3 2 2 3 5 6 6 8 8 8 11 10 10 9 9 11 12 14 13 13 11 13
9 10 10 7 9 10 7 9 5 6 8 4 4 7 9 7 9 10 9 12 11 11 9 7 6 6 6 6 4 3 3 4 5 7 6 8 8 9 10 10 10 10 10 10 11 13 14 13 13
7 11 7 17 5 10 12 9 8 5 6 3 2 7 8 10 12 11 11 14 12 11 11 9 8 7 7 7 6 5 5 6 6 8 8 7 9 9 10 10 11 11 11 10 10 12 12 13 13
10 14 8 7 12 14 12 11 6 2 4 5 2 5 7 8 7 7 12 14 14 13 11 9 8 7 6 7 8 7 7 7 8 9 10 9 11 10 10 10 10 11 11 11 11 13 14 12 12
Wind_Direction
251 247 254 265 240 71 64 55 43 74 70 68 55 68 63 47 26 69 91 90 86 83 107 89 66 73 61 36 18 10 5 5 2 360 351 346 341 336 332 328 324 321 320 319 316 315 315 318 320
256 251 253 304 92 85 73 78 78 87 94 102 108 96 71 58 79 119 92 84 83 90 87 72 32 32 25 356 358 350 353 355 356 351 342 340 338 338 334 332 328 320 316 310 308 307 307 306 307
268 265 268 216 73 72 81 83 88 94 104 107 83 54 50 81 55 82 92 105 99 126 125 71 358 330 330 324 340 343 343 342 343 341 344 338 334 331 333 338 335 328 323 316 307 302 300 299 297
274 241 265 74 77 83 96 106 125 121 94 99 110 85 84 52 80 85 82 58 35 29 63 49 16 315 287 325 331 336 331 327 330 332 334 337 337 336 339 340 340 338 332 325 317 311 305 301 295
243 267 82 96 81 71 68 64 90 98 98 86 90 99 89 85 93 88 71 45 32 28 35 34 31 35 57 349 330 330 323 320 324 337 344 348 344 345 348 352 353 347 339 331 324 314 304 296 292
285 360 191 86 94 97 73 54 68 89 99 110 110 95 96 109 96 79 68 49 38 28 22 34 36 31 53 51 25 352 343 328 332 338 349 2 9 13 16 7 359 360 357 351 343 327 312 302 294
289 276 66 58 68 99 73 62 63 67 68 39 124 110 113 97 85 72 57 53 34 19 20 20 5 44 78 65 45 27 46 30 12 19 37 40 28 16 6 10 347 349 348 342 338 334 326 326 318
296 7 92 117 31 90 84 92 68 99 81 59 62 231 96 90 98 80 60 39 30 24 16 10 6 6 338 66 31 49 50 53 44 41 41 21 314 12 349 356 343 351 347 342 335 330 322 314 303
277 27 73 52 156 85 93 85 63 87 82 68 68 74 92 105 56 48 42 45 29 25 20 13 8 5 1 16 41 65 51 54 35 17 11 2 347 348 343 348 353 356 356 357 342 336 329 337 308
286 51 57 47 52 77 104 102 122 109 102 96 91 84 93 93 77 60 40 37 36 26 19 16 13 12 14 21 28 34 36 32 27 17 9 359 351 356 351 352 358 358 4 358 354 342 338 321 331
19 59 76 63 41 78 74 125 110 91 105 135 101 110 92 88 73 63 64 45 33 33 24 20 24 25 23 33 25 25 29 20 13 12 10 4 2 0 1 359 358 357 359 358 356 356 352 344 336
81 68 75 77 72 70 66 132 82 92 91 83 102 103 106 92 86 57 52 48 36 33 27 28 31 32 32 26 32 30 29 12 15 13 12 8 4 1 358 357 352 352 351 350 349 346 346 343 334
96 96 105 100 81 71 122 97 105 108 110 113 113 132 109 109 106 91 70 51 40 33 27 27 29 30 30 29 25 24 16 21 14 16 12 9 4 1 354 353 351 350 346 345 341 339 338 335 336
123 135 132 124 120 117 116 120 131 132 133 143 154 137 133 115 110 90 63 53 47 35 28 26 27 27 28 31 24 17 18 17 18 17 12 11 7 0 352 350 350 349 346 344 342 341 334 331 331
130 138 128 142 120 131 137 172 118 145 179 157 161 153 138 137 102 75 66 57 39 46 30 21 26 32 32 28 21 30 25 23 18 14 14 8 4 357 349 352 352 351 348 347 349 345 341 335 330
151 299 157 135 155 144 234 140 145 168 183 171 172 155 167 140 122 105 89 73 54 45 35 25 21 26 33 27 30 29 24 22 22 16 9 5 1 359 351 359 359 348 353 358 354 351 349 342 335
277 191 96 135 184 130 258 134 161 183 206 177 191 164 175 181 145 131 135 95 68 54 38 31 32 32 24 24 17 19 22 22 21 15 9 3 1 1 358 4 0 350 1 5 357 351 344 335 344
309 358 78 83 134 219 240 113 158 187 201 193 208 169 188 194 179 167 176 115 91 62 46 36 32 35 33 23 20 20 24 18 19 20 9 4 3 4 3 2 1 357 359 3 357 350 347 334 350
341 329 23 73 94 262 255 266 169 190 197 213 209 179 207 198 144 171 189 166 141 70 47 35 33 36 40 34 22 16 7 15 7 11 6 5 4 4 5 1 0 1 358 16 2 353 348 356 358
289 312 50 139 138 245 149 250 178 190 198 204 205 219 200 189 160 175 195 193 191 115 47 40 28 32 35 39 25 10 359 357 354 2 5 5 5 6 7 5 2 357 347 11 1 357 352 345 3
37 7 4 355 215 233 278 220 192 192 198 208 214 195 227 182 182 173 195 203 195 181 101 57 33 42 37 18 24 9 1 305 4 353 6 1 6 9 8 6 7 358 353 2 358 359 6 353 0
82 341 308 281 276 205 276 325 176 191 205 209 217 217 210 203 185 172 173 194 204 191 157 134 45 36 53 27 32 9 346 2 351 352 3 353 6 8 9 7 3 4 354 15 356 355 357 0 347
15 319 287 283 266 277 178 299 145 172 192 211 216 217 213 212 181 197 173 185 192 173 186 157 126 57 40 51 19 347 3 351 354 358 347 351 6 8 10 7 4 4 1 11 12 1 356 352 349
21 263 3 298 328 129 315 20 75 123 7 251 186 197 179 216 184 179 156 162 176 173 184 163 172 132 37 4 356 350 341 345 343 358 334 348 352 359 13 5 5 4 1 5 6 357 359 2 0
263 296 251 222 247 159 82 211 32 30 39 311 212 180 182 199 212 168 173 164 177 177 196 185 186 198 130 352 321 337 333 307 319 345 357 325 346 355 358 357 1 4 3 2 1 17 1 5 357
220 330 355 315 337 340 17 356 88 56 35 326 278 207 185 192 208 184 169 157 182 180 191 198 185 226 196 252 303 333 332 335 313 6 340 333 337 346 344 345 350 357 3 4 350 9 7 355 351
181 284 355 307 304 271 169 346 109 145 133 291 244 242 195 194 199 193 180 163 180 173 187 205 208 197 212 222 253 287 315 324 332 324 313 331 330 331 341 332 334 342 353 358 349 0 3 353 346
268 332 291 212 304 339 303 35 317 43 46 89 243 225 228 182 214 196 199 159 182 181 182 198 205 211 218 220 225 254 293 299 318 312 302 313 316 319 326 322 321 325 335 345 347 344 341 353 351
170 273 43 292 299 316 338 333 79 15 62 39 233 194 215 205 214 179 199 164 188 187 194 195 210 219 217 230 234 242 267 290 303 311 312 306 304 307 316 319 313 313 317 330 332 326 326 335 335
292 282 266 327 327 329 298 298 178 264 122 125 269 201 215 210 209 186 182 169 190 192 203 191 218 239 231 225 235 241 255 273 286 296 303 300 290 293 306 309 309 304 309 316 318 320 323 324 326